Time,TemperatureF,DewpointF,PressureIn,WindDirection,WindDirectionDegrees,WindSpeedMPH,WindSpeedGustMPH,Humidity,HourlyPrecipIn,Conditions,Clouds,dailyrainin,SolarRadiationWatts/m^2,SoftwareType,DateUTC
2013-11-17 00:01:00,48.0,30.0,-100.00,WNW,301,0.0,12.0,49,0.00,,,0.00,0.000000,,2013-11-17 08:01:00,
2013-11-17 00:12:00,48.0,30.0,-100.00,WNW,301,0.0,12.0,49,0.00,,,0.00,0.000000,,2013-11-17 08:12:00,
2013-11-17 00:21:00,48.0,30.0,-100.00,WNW,301,0.0,12.0,49,0.00,,,0.00,0.000000,,2013-11-17 08:21:00,
2013-11-17 00:52:00,47.0,29.0,-100.00,WNW,285,1.0,9.0,50,0.00,,,0.00,0.000000,,2013-11-17 08:52:00,
2013-11-17 01:03:00,47.0,29.0,-100.00,WNW,285,1.0,9.0,50,0.00,,,0.00,0.000000,,2013-11-17 09:03:00,
2013-11-17 01:11:00,47.0,29.0,-100.00,WNW,285,1.0,9.0,50,0.00,,,0.00,0.000000,,2013-11-17 09:11:00,
2013-11-17 01:22:00,47.0,29.0,-100.00,WNW,285,1.0,9.0,50,0.00,,,0.00,0.000000,,2013-11-17 09:22:00,
2013-11-17 01:54:00,47.0,29.0,-100.00,NE,45,2.0,6.0,50,0.00,,,0.00,0.000000,,2013-11-17 09:54:00,
2013-11-17 02:03:00,47.0,29.0,-100.00,NE,45,2.0,6.0,50,0.00,,,0.00,0.000000,,2013-11-17 10:03:00,
2013-11-17 02:13:00,47.0,29.0,-100.00,NE,45,2.0,6.0,50,0.00,,,0.00,0.000000,,2013-11-17 10:13:00,
2013-11-17 02:23:00,47.0,29.0,-100.00,NE,45,2.0,6.0,50,0.00,,,0.00,0.000000,,2013-11-17 10:23:00,
2013-11-17 02:53:00,48.0,30.0,-100.00,NNW,346,6.0,7.0,50,0.00,,,0.00,0.000000,,2013-11-17 10:53:00,
2013-11-17 03:02:00,48.0,30.0,-100.00,NNW,346,6.0,7.0,50,0.00,,,0.00,0.000000,,2013-11-17 11:02:00,
2013-11-17 03:12:00,48.0,30.0,-100.00,NNW,346,6.0,7.0,50,0.00,,,0.00,0.000000,,2013-11-17 11:12:00,
2013-11-17 03:22:00,48.0,30.0,-100.00,NNW,346,6.0,7.0,50,0.00,,,0.00,0.000000,,2013-11-17 11:22:00,
2013-11-17 03:52:00,46.0,29.0,-100.00,SSW,192,0.0,5.0,52,0.00,,,0.00,0.000000,,2013-11-17 11:52:00,
2013-11-17 04:02:00,46.0,29.0,-100.00,SSW,192,0.0,5.0,52,0.00,,,0.00,0.000000,,2013-11-17 12:02:00,
2013-11-17 04:11:00,46.0,29.0,-100.00,SSW,192,0.0,5.0,52,0.00,,,0.00,0.000000,,2013-11-17 12:11:00,
2013-11-17 04:21:00,46.0,29.0,-100.00,SSW,192,0.0,5.0,52,0.00,,,0.00,0.000000,,2013-11-17 12:21:00,
2013-11-17 04:52:00,45.0,29.0,-100.00,South,170,7.0,10.0,53,0.00,,,0.00,0.000000,,2013-11-17 12:52:00,
2013-11-17 05:01:00,45.0,29.0,-100.00,South,170,7.0,10.0,53,0.00,,,0.00,0.000000,,2013-11-17 13:01:00,
2013-11-17 05:11:00,45.0,29.0,-100.00,South,170,7.0,10.0,53,0.00,,,0.00,0.000000,,2013-11-17 13:11:00,
2013-11-17 05:21:00,45.0,29.0,-100.00,South,170,7.0,10.0,53,0.00,,,0.00,0.000000,,2013-11-17 13:21:00,
2013-11-17 05:52:00,44.0,29.0,-100.00,ENE,70,0.0,7.0,56,0.00,,,0.00,0.000000,,2013-11-17 13:52:00,
2013-11-17 06:02:00,44.0,29.0,-100.00,ENE,70,0.0,7.0,56,0.00,,,0.00,0.000000,,2013-11-17 14:02:00,
2013-11-17 06:11:00,44.0,29.0,-100.00,ENE,70,0.0,7.0,56,0.00,,,0.00,0.000000,,2013-11-17 14:11:00,
2013-11-17 06:21:00,44.0,29.0,-100.00,ENE,70,0.0,7.0,56,0.00,,,0.00,0.000000,,2013-11-17 14:21:00,
2013-11-17 06:52:00,45.0,32.0,-100.00,NW,314,3.0,6.0,59,0.00,,,0.00,0.000000,,2013-11-17 14:52:00,
2013-11-17 07:02:00,45.0,32.0,-100.00,NW,314,3.0,6.0,59,0.00,,,0.00,0.000000,,2013-11-17 15:02:00,
2013-11-17 07:11:00,45.0,32.0,-100.00,NW,314,3.0,6.0,59,0.00,,,0.00,0.000000,,2013-11-17 15:11:00,
2013-11-17 07:22:00,45.0,32.0,-100.00,NW,314,3.0,6.0,59,0.00,,,0.00,0.000000,,2013-11-17 15:22:00,
2013-11-17 07:54:00,47.0,30.0,-100.00,SSE,168,1.0,7.0,51,0.00,,,0.00,57.000000,,2013-11-17 15:54:00,
2013-11-17 08:03:00,47.0,30.0,-100.00,SSE,168,1.0,7.0,51,0.00,,,0.00,57.000000,,2013-11-17 16:03:00,
2013-11-17 08:12:00,47.0,30.0,-100.00,SSE,168,1.0,7.0,51,0.00,,,0.00,57.000000,,2013-11-17 16:12:00,
2013-11-17 08:23:00,47.0,30.0,-100.00,SSE,168,1.0,7.0,51,0.00,,,0.00,57.000000,,2013-11-17 16:23:00,
2013-11-17 08:53:00,50.0,30.0,-100.00,South,170,3.0,5.0,46,0.00,,,0.00,275.000000,,2013-11-17 16:53:00,
2013-11-17 09:03:00,50.0,30.0,-100.00,South,170,3.0,5.0,46,0.00,,,0.00,275.000000,,2013-11-17 17:03:00,
2013-11-17 09:12:00,50.0,30.0,-100.00,South,170,3.0,5.0,46,0.00,,,0.00,275.000000,,2013-11-17 17:12:00,
2013-11-17 09:22:00,50.0,30.0,-100.00,South,170,3.0,5.0,46,0.00,,,0.00,275.000000,,2013-11-17 17:22:00,
2013-11-17 09:52:00,59.0,31.0,-100.00,SE,131,0.0,4.0,35,0.00,,,0.00,482.000000,,2013-11-17 17:52:00,
2013-11-17 10:03:00,59.0,31.0,-100.00,SE,131,0.0,4.0,35,0.00,,,0.00,482.000000,,2013-11-17 18:03:00,
2013-11-17 10:12:00,59.0,31.0,-100.00,SE,131,0.0,4.0,35,0.00,,,0.00,482.000000,,2013-11-17 18:12:00,
2013-11-17 10:52:00,60.0,31.0,-100.00,SSE,168,6.0,10.0,33,0.00,,,0.00,637.000000,,2013-11-17 18:52:00,
2013-11-17 11:02:00,60.0,31.0,-100.00,SSE,168,6.0,10.0,33,0.00,,,0.00,637.000000,,2013-11-17 19:02:00,
2013-11-17 11:12:00,60.0,31.0,-100.00,SSE,168,6.0,10.0,33,0.00,,,0.00,637.000000,,2013-11-17 19:12:00,
2013-11-17 11:21:00,60.0,31.0,-100.00,SSE,168,6.0,10.0,33,0.00,,,0.00,637.000000,,2013-11-17 19:21:00,
2013-11-17 11:52:00,57.0,34.0,-100.00,South,169,8.0,16.0,41,0.00,,,0.00,734.000000,,2013-11-17 19:52:00,
2013-11-17 12:02:00,57.0,34.0,-100.00,South,169,8.0,16.0,41,0.00,,,0.00,734.000000,,2013-11-17 20:02:00,
2013-11-17 12:12:00,57.0,34.0,-100.00,South,169,8.0,16.0,41,0.00,,,0.00,734.000000,,2013-11-17 20:12:00,
2013-11-17 12:22:00,57.0,34.0,-100.00,South,169,8.0,16.0,41,0.00,,,0.00,734.000000,,2013-11-17 20:22:00,
2013-11-17 12:52:00,57.0,31.0,-100.00,South,171,10.0,17.0,37,0.00,,,0.00,751.000000,,2013-11-17 20:52:00,
2013-11-17 13:02:00,57.0,31.0,-100.00,South,171,10.0,17.0,37,0.00,,,0.00,751.000000,,2013-11-17 21:02:00,
2013-11-17 13:12:00,57.0,31.0,-100.00,South,171,10.0,17.0,37,0.00,,,0.00,751.000000,,2013-11-17 21:12:00,
2013-11-17 13:22:00,57.0,31.0,-100.00,South,171,10.0,17.0,37,0.00,,,0.00,751.000000,,2013-11-17 21:22:00,
2013-11-17 13:55:00,57.0,31.0,-100.00,South,169,13.0,20.0,37,0.00,,,0.00,685.000000,,2013-11-17 21:55:00,
2013-11-17 14:04:00,57.0,31.0,-100.00,South,169,13.0,20.0,37,0.00,,,0.00,685.000000,,2013-11-17 22:04:00,
2013-11-17 14:13:00,57.0,31.0,-100.00,South,169,13.0,20.0,37,0.00,,,0.00,685.000000,,2013-11-17 22:13:00,
2013-11-17 14:24:00,57.0,31.0,-100.00,South,169,13.0,20.0,37,0.00,,,0.00,685.000000,,2013-11-17 22:24:00,
2013-11-17 14:53:00,59.0,31.0,-100.00,South,175,11.0,19.0,35,0.00,,,0.00,552.000000,,2013-11-17 22:53:00,
2013-11-17 15:03:00,59.0,31.0,-100.00,South,175,11.0,19.0,35,0.00,,,0.00,552.000000,,2013-11-17 23:03:00,
2013-11-17 15:12:00,59.0,31.0,-100.00,South,175,11.0,19.0,35,0.00,,,0.00,552.000000,,2013-11-17 23:12:00,
2013-11-17 15:23:00,59.0,31.0,-100.00,South,175,11.0,19.0,35,0.00,,,0.00,552.000000,,2013-11-17 23:23:00,
2013-11-17 15:52:00,59.0,31.0,-100.00,South,179,7.0,15.0,34,0.00,,,0.00,361.000000,,2013-11-17 23:52:00,
2013-11-17 16:01:00,59.0,31.0,-100.00,South,179,7.0,15.0,34,0.00,,,0.00,361.000000,,2013-11-18 00:01:00,
2013-11-17 16:11:00,59.0,31.0,-100.00,South,179,7.0,15.0,34,0.00,,,0.00,361.000000,,2013-11-18 00:11:00,
2013-11-17 16:21:00,59.0,31.0,-100.00,South,179,7.0,15.0,34,0.00,,,0.00,361.000000,,2013-11-18 00:21:00,
2013-11-17 16:52:00,53.0,30.0,-100.00,South,186,3.0,11.0,41,0.00,,,0.00,107.000000,,2013-11-18 00:52:00,
2013-11-17 17:01:00,53.0,30.0,-100.00,South,186,3.0,11.0,41,0.00,,,0.00,107.000000,,2013-11-18 01:01:00,
2013-11-17 17:11:00,53.0,30.0,-100.00,South,186,3.0,11.0,41,0.00,,,0.00,107.000000,,2013-11-18 01:11:00,
2013-11-17 17:22:00,53.0,30.0,-100.00,South,186,3.0,11.0,41,0.00,,,0.00,107.000000,,2013-11-18 01:22:00,
2013-11-17 17:52:00,53.0,32.0,-100.00,WNW,303,4.0,6.0,44,0.00,,,0.00,3.000000,,2013-11-18 01:52:00,
2013-11-17 18:01:00,53.0,32.0,-100.00,WNW,303,4.0,6.0,44,0.00,,,0.00,3.000000,,2013-11-18 02:01:00,
2013-11-17 18:11:00,53.0,32.0,-100.00,WNW,303,4.0,6.0,44,0.00,,,0.00,3.000000,,2013-11-18 02:11:00,
2013-11-17 18:21:00,53.0,32.0,-100.00,WNW,303,4.0,6.0,44,0.00,,,0.00,3.000000,,2013-11-18 02:21:00,
2013-11-17 18:52:00,53.0,31.0,-100.00,NW,318,8.0,11.0,43,0.00,,,0.00,0.000000,,2013-11-18 02:52:00,
2013-11-17 19:02:00,53.0,31.0,-100.00,NW,318,8.0,11.0,43,0.00,,,0.00,0.000000,,2013-11-18 03:02:00,
2013-11-17 19:11:00,53.0,31.0,-100.00,NW,318,8.0,11.0,43,0.00,,,0.00,0.000000,,2013-11-18 03:11:00,
2013-11-17 19:22:00,53.0,31.0,-100.00,NW,318,8.0,11.0,43,0.00,,,0.00,0.000000,,2013-11-18 03:22:00,
2013-11-17 19:54:00,53.0,31.0,-100.00,NW,315,6.0,12.0,43,0.00,,,0.00,0.000000,,2013-11-18 03:54:00,
2013-11-17 20:03:00,53.0,31.0,-100.00,NW,315,6.0,12.0,43,0.00,,,0.00,0.000000,,2013-11-18 04:03:00,
2013-11-17 20:12:00,53.0,31.0,-100.00,NW,315,6.0,12.0,43,0.00,,,0.00,0.000000,,2013-11-18 04:12:00,
2013-11-17 20:23:00,53.0,31.0,-100.00,NW,315,6.0,12.0,43,0.00,,,0.00,0.000000,,2013-11-18 04:23:00,
2013-11-17 20:52:00,53.0,33.0,-100.00,WNW,301,3.0,7.0,46,0.00,,,0.00,0.000000,,2013-11-18 04:52:00,
2013-11-17 21:02:00,53.0,33.0,-100.00,WNW,301,3.0,7.0,46,0.00,,,0.00,0.000000,,2013-11-18 05:02:00,
2013-11-17 21:12:00,53.0,33.0,-100.00,WNW,301,3.0,7.0,46,0.00,,,0.00,0.000000,,2013-11-18 05:12:00,
2013-11-17 21:22:00,53.0,33.0,-100.00,WNW,301,3.0,7.0,46,0.00,,,0.00,0.000000,,2013-11-18 05:22:00,
2013-11-17 21:53:00,52.0,34.0,-100.00,NW,306,0.0,6.0,51,0.00,,,0.00,0.000000,,2013-11-18 05:53:00,
2013-11-17 22:02:00,52.0,34.0,-100.00,NW,306,0.0,6.0,51,0.00,,,0.00,0.000000,,2013-11-18 06:02:00,
2013-11-17 22:12:00,52.0,34.0,-100.00,NW,306,0.0,6.0,51,0.00,,,0.00,0.000000,,2013-11-18 06:12:00,
2013-11-17 22:22:00,52.0,34.0,-100.00,NW,306,0.0,6.0,51,0.00,,,0.00,0.000000,,2013-11-18 06:22:00,
2013-11-17 22:52:00,51.0,34.0,-100.00,SSE,152,0.0,4.0,53,0.00,,,0.00,0.000000,,2013-11-18 06:52:00,
2013-11-17 23:01:00,51.0,34.0,-100.00,SSE,152,0.0,4.0,53,0.00,,,0.00,0.000000,,2013-11-18 07:01:00,
2013-11-17 23:11:00,51.0,34.0,-100.00,SSE,152,0.0,4.0,53,0.00,,,0.00,0.000000,,2013-11-18 07:11:00,
2013-11-17 23:21:00,51.0,34.0,-100.00,SSE,152,0.0,4.0,53,0.00,,,0.00,0.000000,,2013-11-18 07:21:00,
2013-11-17 23:52:00,50.0,33.0,-100.00,South,171,0.0,4.0,52,0.00,,,-99.99,0.000000,,2013-11-18 07:52:00,